GFSGBSN_925_temp_108.txt.gz
Temp
6 6 6 6 6 6 6 6 6 6 6 6 6 6 6 6 6 6 6 7 7 7 7 8 6 6 8 12 14 17 15 14 15 16 18 20 20 21 22 23 24 23 24 25 25 25 25
6 6 6 6 6 6 6 5 5 6 6 6 6 6 5 5 5 6 6 7 7 7 7 8 6 6 9 9 13 14 13 13 16 16 19 20 21 22 22 23 23 25 24 24 24 24 25
6 6 6 5 5 5 5 5 5 5 5 5 5 5 5 5 5 5 6 7 7 8 8 8 6 7 9 10 12 13 13 14 14 15 18 19 20 21 22 21 23 23 22 23 24 24 24
5 5 5 5 5 5 5 5 5 5 5 5 5 5 5 5 5 5 6 6 7 8 9 8 6 8 8 10 11 12 13 13 13 13 15 16 16 18 21 22 22 21 22 22 25 25 24
5 5 5 5 5 5 5 5 5 5 5 5 5 5 5 5 5 6 6 6 7 8 7 8 8 8 10 11 11 12 12 14 15 14 15 16 18 19 20 19 21 22 22 23 24 25 25
5 5 5 5 5 5 5 5 4 4 4 4 5 4 4 4 5 5 5 6 7 7 9 8 8 6 9 13 13 13 15 14 15 16 15 16 18 18 19 20 20 21 22 22 22 24 23
4 4 4 4 4 4 5 4 4 4 4 4 4 4 4 4 4 5 5 9 10 11 8 9 11 8 11 11 11 13 15 14 16 16 17 17 17 17 20 20 21 22 22 21 23 23 23
4 4 4 4 4 4 4 4 4 4 4 4 4 4 4 4 5 5 6 8 5 5 4 10 9 10 9 10 11 12 14 15 16 16 19 17 17 20 20 20 19 17 17 20 21 21 21
4 4 4 4 4 4 4 4 4 4 4 4 4 4 4 5 5 6 6 7 6 5 7 10 12 12 12 11 11 12 14 16 17 18 18 17 19 19 19 18 17 17 17 17 19 21 21
4 4 4 4 4 4 3 4 4 4 4 4 4 4 4 5 5 6 8 6 6 5 6 12 11 11 10 11 11 14 14 16 17 18 18 18 19 19 17 17 17 18 20 19 18 17 19
4 4 3 3 3 3 3 3 3 3 3 3 3 3 4 4 5 7 7 5 5 5 9 13 8 9 9 11 14 16 15 16 16 18 17 17 18 17 18 18 18 18 20 18 18 19 19
4 3 3 3 3 3 3 3 3 3 3 3 4 3 4 5 5 6 5 5 6 8 9 11 10 7 8 13 14 14 14 16 17 18 18 19 19 19 19 18 18 18 17 18 18 19 18
4 3 3 3 3 3 3 3 3 3 3 4 4 4 4 5 7 5 5 7 9 10 12 10 10 7 8 11 14 15 14 15 16 15 16 18 18 18 19 17 17 18 18 17 17 17 19
3 3 3 3 3 3 3 3 3 3 4 4 5 5 5 5 4 4 6 8 9 10 9 11 11 8 8 9 12 15 16 15 15 17 18 17 16 18 18 19 18 17 18 19 16 18 20
3 3 3 3 3 3 3 3 3 3 4 4 5 5 6 5 4 5 8 10 9 8 10 10 12 9 9 10 8 12 12 12 13 14 16 17 17 18 19 19 20 18 17 20 18 19 18
3 3 3 3 3 3 3 3 3 3 4 4 5 6 6 4 4 6 8 7 9 10 10 10 10 10 8 8 9 10 11 10 11 13 14 16 16 18 18 18 19 19 20 17 19 17 18
3 3 3 3 3 3 3 3 3 3 4 4 6 8 6 4 4 9 7 8 8 10 10 9 10 10 10 10 10 9 9 9 10 12 14 15 17 16 17 17 17 17 17 18 19 19 19
3 3 2 3 2 3 3 3 3 3 4 4 6 7 5 5 8 7 8 8 7 9 10 10 10 11 10 10 11 11 10 10 11 9 11 13 14 16 17 17 19 19 18 19 17 18 18
2 2 3 3 3 3 3 3 3 3 4 5 7 7 6 5 7 7 9 8 8 9 9 9 10 10 11 10 10 11 12 12 12 12 10 11 14 16 16 16 17 18 19 19 19 19 19
3 2 2 3 3 2 3 3 3 3 4 4 5 6 8 8 7 7 7 8 8 9 9 10 10 11 10 11 12 11 11 12 12 12 9 12 13 13 15 16 17 16 17 18 18 18 19
2 3 2 3 3 2 3 3 3 4 4 5 5 5 6 6 7 7 7 8 8 8 9 10 10 10 9 8 11 11 11 12 13 10 10 10 12 13 15 15 15 16 17 18 18 18 18
2 2 2 2 2 2 2 3 3 4 3 5 5 5 6 7 7 7 7 8 8 8 9 9 9 9 10 9 9 10 11 11 11 11 11 9 12 11 13 15 14 15 16 17 18 18 18
2 2 2 2 2 2 2 3 3 3 4 4 4 4 7 6 7 7 8 8 8 8 9 9 9 8 9 10 11 11 11 11 12 11 9 9 11 12 13 14 14 14 16 17 17 17 17
2 2 2 2 2 2 2 2 3 3 4 4 4 6 5 7 7 8 7 8 8 8 7 8 9 9 10 11 11 12 12 11 11 12 12 9 11 12 13 14 12 15 16 16 17 16 16
2 2 2 2 2 2 2 2 3 3 3 3 3 5 5 6 8 8 7 7 8 8 8 8 9 10 10 9 10 11 12 11 12 12 12 12 11 11 12 14 15 15 12 14 15 12 12
2 2 2 2 2 2 2 2 3 3 3 3 2 2 3 4 8 8 8 8 8 8 8 8 10 10 9 9 9 10 11 10 11 11 11 11 11 11 13 12 13 12 10 14 14 12 11
2 2 2 2 2 2 1 2 2 3 4 3 2 2 1 3 7 7 8 8 8 8 8 9 8 9 9 8 10 10 11 12 11 11 10 11 10 10 12 12 14 11 10 11 13 10 8
2 1 1 1 1 1 1 2 2 3 3 3 3 2 2 3 7 7 8 7 8 8 8 9 8 7 9 8 9 10 10 12 11 12 10 11 11 11 12 12 12 9 13 11 8 8 8
2 1 1 1 1 1 1 2 2 2 3 3 3 3 2 2 5 4 5 6 7 8 7 7 8 7 8 8 9 9 9 11 11 11 11 10 10 9 10 10 7 7 6 7 9 9 8

GFSGBSN_925_temp_114.txt.gz
Temp
8 7 7 7 7 7 7 6 6 6 6 6 6 6 6 6 6 6 6 7 7 7 8 7 6 7 8 14 16 18 18 18 18 19 20 22 22 23 22 24 25 26 26 28 29 29 29
7 7 7 7 6 6 6 6 6 6 6 6 6 6 6 6 6 6 7 8 8 9 9 8 7 6 9 11 16 18 18 18 19 20 20 21 22 24 23 24 24 26 27 28 29 29 29
7 7 6 6 6 6 6 6 6 6 6 6 6 6 6 6 7 7 8 9 9 9 9 9 7 7 11 12 14 15 16 16 17 19 20 20 21 22 24 23 25 25 25 27 28 28 28
6 6 6 6 5 5 6 5 5 5 5 5 5 5 6 7 7 8 8 9 10 10 9 10 8 8 11 14 15 16 16 16 16 17 18 20 21 23 22 24 24 24 24 23 26 27 28
6 6 6 5 5 5 5 5 5 5 5 5 5 5 6 7 7 8 8 9 11 11 10 10 9 11 13 16 17 16 17 17 16 17 17 19 20 20 22 21 21 23 23 23 24 27 27
6 6 5 5 5 5 5 5 5 5 5 5 5 5 6 7 7 8 8 10 13 10 11 11 13 13 16 16 15 16 16 16 17 17 16 17 18 18 19 21 19 21 22 23 24 26 27
5 5 5 5 5 5 5 5 5 4 5 5 5 6 6 6 7 8 8 13 14 14 13 12 13 13 14 15 15 16 15 16 16 16 14 14 16 16 17 20 22 22 23 24 25 26 26
5 5 5 5 5 5 5 5 4 4 4 4 5 5 6 6 7 9 9 13 11 9 8 12 13 14 14 16 15 16 15 15 15 13 15 11 13 18 18 20 20 22 22 23 26 27 24
5 4 5 5 5 5 5 4 4 4 4 5 5 5 5 7 8 8 11 12 11 10 9 13 17 17 16 15 15 16 16 15 14 13 12 9 14 18 18 19 20 21 21 23 24 21 18
4 4 4 5 5 4 4 4 4 4 4 4 4 5 6 7 7 10 13 11 10 10 8 17 17 17 16 17 16 17 16 16 11 10 9 10 14 17 18 18 21 21 23 23 23 21 15
4 4 4 4 4 4 4 4 4 4 4 4 5 5 6 5 7 12 11 10 10 9 12 17 17 18 18 16 15 16 15 13 12 10 11 11 13 18 19 19 21 22 24 23 22 19 17
4 4 4 4 4 4 3 4 4 4 4 4 5 6 6 9 7 10 10 9 10 9 13 16 17 16 16 16 14 14 15 16 16 12 12 12 15 17 21 22 23 23 22 21 20 19 16
4 3 3 3 3 3 3 3 4 4 4 5 6 6 5 8 11 9 9 11 10 12 17 15 14 15 16 14 14 14 14 16 15 14 13 15 17 18 21 21 22 21 20 16 15 16 16
3 3 3 3 3 3 3 3 4 4 5 5 6 6 7 9 9 8 10 11 11 15 14 15 15 16 14 14 13 12 13 17 18 17 16 15 12 15 20 21 21 19 19 16 15 16 17
3 3 3 3 3 3 3 4 4 4 5 6 7 7 8 9 8 9 10 11 13 12 14 13 15 14 14 15 11 10 8 12 14 14 13 14 16 16 18 22 21 19 18 20 18 18 18
3 3 3 3 3 3 3 4 4 4 5 5 6 11 12 9 8 9 11 11 13 14 14 14 13 14 13 14 13 10 10 10 12 13 14 14 13 17 16 21 21 20 20 17 18 17 17
3 3 3 3 3 3 3 4 4 4 5 5 6 11 10 9 9 10 10 13 13 14 14 13 13 13 13 13 13 12 12 12 13 12 14 15 14 16 20 16 18 19 19 19 20 20 18
3 3 3 3 3 3 3 4 4 4 5 6 11 11 10 9 9 11 12 12 11 14 15 14 14 13 13 14 12 14 14 14 15 12 12 14 13 13 18 22 22 21 20 20 18 18 20
3 3 3 3 3 3 3 4 4 4 5 7 12 13 11 10 10 13 14 13 14 13 14 13 13 14 14 14 12 12 14 15 15 14 12 12 12 12 15 18 21 20 21 21 21 20 18
3 3 3 3 3 3 3 4 4 5 5 5 9 8 12 13 12 11 12 13 13 14 13 14 14 13 13 13 14 10 14 15 15 15 13 13 13 11 12 12 14 18 21 21 20 18 19
3 3 3 3 3 3 3 3 4 5 5 5 8 9 11 10 11 11 12 12 12 13 14 14 13 13 12 11 13 13 14 14 15 14 15 14 12 12 14 15 10 13 15 19 20 20 19
3 3 3 3 3 3 3 3 4 5 5 7 4 9 12 12 11 11 10 12 12 13 12 12 12 12 12 12 12 11 12 12 12 14 14 14 12 13 15 18 16 13 14 14 14 16 18
3 3 3 3 3 3 3 3 4 4 4 7 8 10 11 10 12 12 12 12 12 12 12 13 12 11 12 13 12 12 13 13 13 12 13 13 11 12 15 17 17 17 18 19 20 20 19
3 3 3 3 2 3 3 3 3 4 4 5 8 8 9 9 12 12 12 12 12 12 11 12 12 12 13 13 13 14 15 16 16 15 15 13 13 13 13 15 14 15 15 16 17 16 16
3 3 3 2 2 2 2 2 3 4 4 5 6 8 9 8 11 12 12 12 12 13 12 12 13 13 13 12 11 12 14 14 14 16 15 15 13 12 13 14 16 12 13 12 12 12 12
3 3 2 2 2 2 2 2 3 3 4 3 4 5 8 7 10 11 11 12 11 11 11 12 12 13 13 11 10 11 11 13 13 11 12 15 14 13 13 13 13 11 14 15 14 10 6
3 3 2 2 2 2 2 2 3 3 3 3 3 4 5 6 10 11 9 9 11 11 10 11 11 11 13 10 10 11 12 14 12 10 10 12 12 12 13 13 11 9 12 14 12 9 7
3 3 2 2 2 2 2 2 2 3 3 3 4 4 4 4 7 9 10 9 9 10 8 9 10 9 10 10 11 11 11 12 12 13 12 10 10 9 10 12 11 7 11 9 7 7 7
2 2 2 2 2 2 2 2 2 2 3 3 4 3 3 2 5 4 5 7 8 9 9 10 9 9 10 9 10 10 10 11 12 11 11 10 11 10 8 8 5 5 6 6 7 8 9

GFSGBSN_925_temp_117.txt.gz
Temp
9 8 8 7 7 7 7 6 7 7 6 6 6 7 7 7 7 7 7 7 8 7 7 7 6 6 8 10 12 16 16 16 16 16 17 18 18 18 17 19 20 20 22 23 24 24 25
9 8 8 7 7 7 7 6 6 6 6 6 6 6 7 7 6 7 7 8 8 9 9 8 6 6 8 8 14 15 16 16 16 16 16 17 18 18 18 19 20 21 22 23 24 24 25
8 8 8 7 7 7 6 6 6 6 6 6 6 6 6 6 6 7 8 9 9 10 10 9 6 7 8 9 15 15 15 15 16 16 16 16 17 17 18 18 20 21 20 22 23 24 24
7 7 7 7 6 6 6 6 6 6 6 6 5 5 6 6 6 8 9 10 11 11 11 10 8 8 7 13 14 14 16 16 16 17 17 16 17 16 15 18 18 18 19 19 22 23 24
7 7 6 6 6 5 5 5 5 5 5 5 5 5 5 6 7 9 10 11 12 12 11 11 8 8 10 15 15 15 16 16 16 16 16 16 16 15 15 15 15 17 16 18 20 22 23
6 6 6 6 5 5 5 5 5 5 5 5 5 5 6 6 8 9 10 12 13 12 13 10 10 10 12 14 14 15 15 16 15 14 15 14 13 12 13 13 13 16 16 17 19 21 23
6 6 5 5 5 5 5 5 5 5 5 4 5 5 6 7 8 9 10 11 9 10 10 10 11 11 12 14 14 15 16 16 14 13 12 13 12 11 12 13 15 16 16 18 19 22 22
5 5 5 5 5 5 5 5 5 4 4 4 5 5 6 7 8 10 9 10 10 10 6 10 11 12 13 13 13 15 16 14 13 12 13 13 11 13 14 13 14 15 15 17 20 22 22
4 5 5 5 5 5 5 5 4 4 4 4 5 5 6 8 9 10 11 11 10 10 6 10 14 15 15 16 14 15 15 14 13 12 12 12 11 14 13 12 12 15 15 16 18 18 18
5 5 5 5 5 5 5 4 4 4 4 4 5 5 6 8 8 9 10 10 10 9 4 14 14 16 16 16 15 16 15 14 12 10 11 9 11 9 11 12 12 14 16 17 18 18 16
4 4 4 4 4 4 4 4 4 4 4 4 5 6 6 6 7 9 10 10 10 9 10 16 16 18 16 15 15 15 16 13 12 11 8 10 12 9 9 11 14 15 16 17 19 17 15
4 4 4 4 4 4 3 3 4 4 4 4 5 6 7 7 7 9 9 9 9 8 11 15 15 14 14 15 15 15 14 15 14 12 12 11 13 12 11 14 16 17 16 17 17 15 13
4 4 4 3 4 3 4 3 3 4 4 5 5 6 6 7 8 9 9 8 8 8 15 13 13 13 14 13 13 13 12 12 12 11 12 15 15 15 15 15 16 17 16 14 13 13 13
4 4 3 3 3 3 3 3 3 4 4 5 6 6 7 8 8 9 9 7 8 12 12 13 13 13 12 13 12 12 11 11 13 12 11 12 12 13 15 14 16 17 16 12 13 13 14
3 3 3 3 3 3 3 3 3 4 5 5 7 8 7 9 8 8 6 5 10 12 13 12 13 12 12 13 10 10 9 10 12 13 10 11 13 14 15 15 15 17 16 17 15 17 15
3 3 3 3 3 3 3 3 4 4 5 5 6 7 9 9 9 8 5 9 12 13 13 13 12 12 10 11 11 7 11 11 12 13 13 13 12 14 13 14 18 18 18 14 14 14 15
4 3 4 3 3 3 3 3 4 4 5 5 5 6 9 9 9 6 4 10 13 13 14 13 12 12 12 11 11 10 11 12 13 12 13 12 12 13 14 15 16 17 17 17 14 16 15
3 3 3 3 3 3 3 3 4 4 5 6 6 6 10 9 5 6 5 12 12 13 14 13 13 13 12 11 11 11 11 12 13 12 11 12 10 11 14 15 18 17 16 17 15 15 16
3 3 3 3 3 3 3 3 4 4 5 5 6 7 10 10 6 7 12 13 13 13 13 13 12 13 11 11 10 12 12 13 13 13 11 11 11 10 13 14 15 14 17 19 18 17 17
3 3 3 3 3 3 3 3 4 4 5 4 5 5 7 7 8 10 10 12 12 13 13 13 13 11 11 11 11 11 12 13 12 12 13 12 12 10 9 10 10 11 14 17 18 16 16
3 3 3 3 3 3 3 3 4 4 5 5 4 5 9 5 7 10 10 11 11 12 13 13 12 12 10 9 10 10 10 11 12 13 12 11 10 12 12 13 9 10 14 15 15 17 17
3 3 3 3 3 3 3 3 4 4 5 5 2 4 7 8 10 10 9 11 11 12 11 11 11 11 10 9 11 9 10 9 10 12 11 11 10 11 12 15 14 14 14 15 15 15 16
3 3 3 3 3 3 3 3 4 4 5 6 8 9 6 8 9 8 10 11 11 12 12 12 10 10 9 10 10 10 10 10 10 10 10 10 10 10 12 14 14 12 11 12 11 12 15
3 3 3 3 3 3 3 3 3 4 5 4 7 7 4 4 7 10 12 12 11 11 10 11 11 10 10 11 10 10 11 12 12 12 11 10 11 11 10 12 12 11 13 13 10 9 9
3 3 3 3 3 3 3 3 3 4 4 4 5 5 5 4 7 10 11 11 10 10 10 11 10 10 9 9 8 9 9 12 14 11 10 12 11 9 10 10 13 11 10 10 10 9 7
3 3 3 3 3 3 2 2 3 3 4 4 4 5 5 3 6 9 8 8 7 7 7 10 9 10 9 8 5 9 9 10 11 12 12 12 11 9 9 11 10 8 8 10 10 8 7
3 3 3 3 3 3 2 2 3 3 4 4 4 4 4 3 6 6 6 6 8 7 6 8 7 7 8 4 6 7 9 12 10 9 8 8 8 8 8 9 9 6 8 9 10 8 7
3 3 3 3 3 2 2 2 2 3 3 4 4 4 4 3 4 6 7 6 6 6 5 6 5 5 5 5 7 7 7 9 9 9 8 8 7 5 8 8 8 6 8 7 6 6 6
3 3 3 2 2 2 2 2 2 3 3 4 4 4 4 2 3 3 4 6 5 6 6 6 6 7 7 4 4 5 6 7 8 9 10 8 9 7 6 6 5 4 4 4 5 5 6

GFSGBSN_925_temp_120.txt.gz
Temp
10 10 9 9 8 8 7 7 7 7 7 7 7 7 7 7 7 8 8 9 9 9 8 7 6 6 8 9 11 15 15 16 16 16 15 15 14 15 14 16 16 17 19 20 20 21 22
10 9 9 9 8 7 7 7 7 7 6 6 6 7 7 7 7 8 8 9 9 8 8 6 6 6 7 9 14 15 15 15 16 15 15 15 15 14 14 15 15 17 18 19 20 21 21
10 9 9 8 8 7 7 7 7 6 6 6 6 6 7 7 7 7 8 8 9 9 8 7 6 6 7 9 15 15 15 15 15 16 15 16 15 14 14 13 15 16 15 17 19 20 21
9 9 8 8 8 7 7 7 7 6 6 6 6 6 6 7 7 8 8 9 10 10 10 9 8 7 7 14 14 14 15 15 16 15 15 16 16 14 13 14 14 14 14 14 18 19 20
9 8 8 8 7 7 6 7 6 6 6 6 6 6 6 7 8 8 9 10 11 11 11 9 8 8 8 13 14 15 15 15 15 15 15 15 15 13 13 12 12 13 12 14 15 18 19
8 8 7 7 6 6 6 6 6 6 6 5 5 5 6 7 8 8 10 11 12 12 10 9 10 8 10 13 15 15 15 15 14 14 13 13 12 11 11 10 10 12 12 13 14 17 18
8 7 7 6 6 5 5 5 5 5 5 5 5 5 6 7 8 8 10 11 8 10 9 10 10 10 11 13 14 14 15 14 14 13 11 12 10 9 11 12 12 12 12 12 14 15 16
7 7 6 5 5 5 5 5 5 5 5 5 5 5 6 8 9 9 10 9 10 9 6 9 9 10 11 12 12 13 16 13 13 11 12 11 10 12 13 13 12 12 11 11 13 15 16
7 6 5 5 5 5 5 5 5 4 4 4 5 6 7 8 9 9 9 9 10 9 5 9 12 13 13 13 12 14 14 14 12 10 11 10 11 13 12 12 11 11 11 11 11 14 15
6 5 5 5 5 5 5 5 4 4 4 4 5 6 6 8 8 9 9 9 9 9 5 13 13 14 15 15 14 16 15 13 11 10 10 9 11 12 12 12 12 8 12 12 12 13 12
5 5 5 5 5 5 5 4 4 4 4 4 5 5 7 6 7 8 9 9 9 8 10 14 15 17 15 14 14 15 15 13 11 11 9 10 11 10 10 11 11 9 11 12 12 14 13
4 4 4 5 4 4 4 4 4 3 4 4 5 6 6 7 7 9 9 9 9 8 11 13 14 13 12 14 14 14 13 14 13 11 10 11 13 12 12 13 13 12 11 12 14 13 12
4 4 4 4 4 4 4 3 3 3 4 4 5 6 6 7 8 8 9 8 8 9 13 12 12 12 12 12 12 13 12 11 10 10 10 11 14 13 14 13 13 12 12 10 10 11 12
4 4 4 4 4 4 4 3 3 3 4 5 5 6 7 8 8 8 8 6 10 12 12 13 12 12 11 11 11 11 10 10 12 11 10 10 11 14 14 11 12 13 13 11 11 13 13
3 3 3 3 3 3 3 3 3 4 4 5 6 7 7 9 8 8 6 6 9 11 12 11 11 11 11 11 9 9 7 9 11 12 10 11 12 14 15 14 13 15 12 15 15 14 14
3 3 3 3 3 3 3 3 3 4 4 5 6 7 8 9 8 8 5 9 11 13 13 12 11 12 9 10 9 4 9 10 11 12 12 12 10 14 13 13 15 14 16 14 13 13 14
3 3 3 3 3 3 3 3 3 4 4 5 6 6 9 9 8 5 4 7 12 13 13 12 12 11 11 10 10 6 9 10 11 11 11 11 11 13 14 11 12 13 14 13 14 12 13
3 3 3 3 3 3 3 3 3 4 5 5 5 6 9 9 5 3 4 10 13 12 13 13 12 12 11 10 9 10 11 11 11 10 10 10 10 10 13 15 14 15 13 13 12 12 12
3 3 3 3 3 3 3 3 4 4 5 6 5 6 8 9 4 6 9 12 11 12 12 12 12 12 11 10 9 10 10 11 10 10 10 10 10 10 12 13 13 10 12 13 12 12 13
3 3 3 3 3 3 3 3 4 4 5 6 4 4 5 5 5 9 9 10 11 13 12 12 12 11 10 9 10 9 9 10 10 10 12 11 10 10 10 10 11 11 11 13 12 12 15
3 3 3 3 3 3 3 3 4 4 5 5 3 4 6 3 5 8 9 10 10 11 11 11 10 10 9 8 8 9 9 9 10 11 10 10 9 10 11 12 10 10 11 12 13 14 15
3 3 3 3 3 3 3 3 4 4 5 5 2 4 5 6 9 9 9 10 10 11 11 10 9 9 9 8 9 8 8 9 8 10 9 9 9 10 11 14 10 10 13 11 11 11 12
3 3 3 3 3 3 3 3 4 4 5 5 6 6 5 6 7 6 7 10 11 11 11 11 10 9 8 9 9 9 9 9 9 9 8 8 8 9 10 12 12 10 8 9 9 8 11
3 3 3 3 3 3 3 3 4 4 5 5 5 5 3 3 6 8 11 11 10 9 9 10 9 9 10 9 8 8 8 9 9 9 9 9 9 9 9 11 11 9 8 8 7 7 7
3 3 3 3 3 3 3 3 3 4 5 5 5 4 3 3 6 8 8 8 7 7 8 9 9 9 7 8 7 8 8 10 11 11 11 9 9 8 9 10 10 9 8 7 8 7 7
3 3 3 3 3 3 3 2 3 4 4 5 5 5 3 2 5 7 7 7 6 5 6 8 8 8 7 5 4 8 9 10 10 11 11 10 10 8 8 10 9 8 6 8 8 7 6
3 3 3 3 3 3 3 2 3 3 4 5 4 5 4 0 5 6 5 5 7 6 5 5 6 6 6 2 5 6 8 10 8 8 8 8 8 7 7 8 8 5 6 7 9 7 6
3 3 3 3 3 3 2 2 3 3 4 4 4 4 4 0 3 5 6 6 5 5 4 5 4 5 3 4 5 5 6 8 8 8 8 7 6 7 6 7 7 4 6 6 5 4 5
3 3 3 3 3 2 2 2 2 3 4 4 3 3 4 2 2 4 4 5 6 6 4 4 5 6 5 3 2 4 5 5 7 6 8 8 7 6 6 6 4 3 4 3 4 4 3

GFSGBSN_925_temp_126.txt.gz
Temp
12 12 11 11 11 10 10 9 9 9 8 8 8 8 8 8 8 9 8 8 8 9 9 10 9 11 12 13 14 14 15 16 15 16 15 13 13 13 13 12 12 12 13 13 13 13 13
12 12 11 11 11 10 10 9 8 8 8 8 8 7 7 7 8 8 8 8 9 9 9 9 9 9 9 14 14 14 15 16 15 15 14 14 14 14 12 12 12 12 12 13 13 13 14
14 12 12 11 11 10 10 9 8 8 8 8 8 7 7 7 8 8 8 8 9 9 9 9 9 8 7 14 14 15 15 15 15 15 14 15 14 13 13 11 12 12 11 13 13 13 14
12 12 12 12 10 10 9 9 8 8 8 7 7 7 7 7 8 9 8 9 9 10 10 9 8 7 9 14 14 15 15 15 15 15 14 14 14 13 12 12 11 11 11 9 14 14 15
11 12 12 11 10 10 9 9 8 7 7 7 6 6 6 7 8 10 10 9 9 11 10 9 8 7 12 14 14 15 15 14 14 14 14 14 14 12 12 10 8 9 9 10 12 14 13
11 11 12 11 10 10 9 8 8 7 6 6 6 6 7 7 9 9 10 10 9 9 7 8 7 9 12 14 14 14 14 14 13 12 12 12 8 9 7 8 9 10 9 9 9 11 12
9 11 11 11 10 10 9 8 7 7 6 6 6 6 6 7 8 8 9 9 8 8 7 9 10 10 11 12 13 14 14 13 13 12 10 10 9 8 8 9 10 10 10 9 10 12 11
9 10 11 11 10 9 8 7 7 6 6 6 6 6 6 7 8 8 9 7 9 9 9 8 8 8 10 11 12 13 13 13 12 10 10 9 8 10 10 9 9 9 9 9 10 11 11
10 10 11 11 10 9 8 7 6 6 5 5 5 6 6 7 8 8 9 9 9 9 7 10 10 10 12 11 12 12 12 13 11 10 9 9 10 11 11 10 9 10 9 10 10 11 11
11 10 11 10 9 8 7 6 5 5 5 5 6 6 6 8 8 9 8 9 9 9 7 12 11 13 12 11 13 14 14 13 11 10 10 8 9 10 10 9 10 8 11 12 11 9 10
11 11 11 9 8 7 6 5 5 4 4 4 5 6 6 7 8 7 9 9 8 8 13 12 12 15 13 14 14 14 14 12 11 10 9 9 10 9 8 9 11 9 11 11 11 9 8
10 11 9 8 7 6 5 5 4 4 4 4 4 5 6 6 7 8 9 8 8 7 12 12 13 12 12 12 12 13 12 12 12 10 9 9 11 11 10 11 11 12 10 10 9 8 8
11 10 8 7 6 5 5 5 4 4 4 4 4 5 6 7 7 8 8 7 7 9 13 11 11 11 11 11 12 11 11 10 9 8 9 9 10 11 11 10 12 10 9 8 8 7 11
9 7 6 6 5 5 5 4 4 3 4 3 4 5 6 7 8 8 8 7 10 11 11 12 11 11 10 10 11 9 10 9 10 9 7 7 7 12 12 11 12 11 9 10 8 12 11
4 5 5 5 5 4 4 3 3 3 3 3 4 5 6 7 7 8 6 6 10 11 11 11 11 10 10 10 8 9 6 9 10 10 8 8 8 12 12 12 12 11 11 11 11 12 10
4 4 3 3 3 3 2 2 3 3 3 4 5 6 7 8 7 7 5 9 10 12 11 11 10 10 9 9 9 3 8 9 10 10 9 9 8 11 12 12 13 11 12 11 11 10 12
2 2 2 2 2 2 2 3 3 3 3 5 6 6 6 8 8 5 5 9 11 12 12 11 10 10 10 9 9 4 7 9 9 9 8 8 8 10 11 10 10 10 11 10 11 11 12
3 3 3 3 3 3 3 3 3 3 4 5 5 5 6 7 5 3 6 9 12 11 12 11 11 10 10 9 9 9 9 10 9 8 7 9 8 9 10 12 12 12 10 10 11 12 12
3 3 3 3 3 3 3 3 3 3 5 6 5 5 6 7 5 6 8 10 11 11 11 11 10 10 10 9 9 8 9 10 9 8 8 9 8 7 9 12 12 10 11 10 10 11 12
4 3 3 3 3 3 3 3 3 4 5 6 4 4 5 5 5 7 8 9 10 11 10 10 9 9 9 9 9 8 8 9 9 9 10 9 8 6 5 7 8 9 9 10 12 11 12
4 4 3 3 3 3 3 3 4 4 5 6 2 3 5 4 5 7 8 9 9 9 10 9 9 9 9 8 8 7 8 7 8 10 9 9 7 8 8 10 9 8 8 8 9 10 11
3 3 4 3 3 3 3 3 4 5 5 5 3 4 4 6 7 7 8 9 9 9 10 9 8 9 7 7 8 8 8 8 7 8 8 7 7 8 9 10 9 8 8 9 8 8 10
3 3 3 3 3 3 3 4 4 5 5 4 4 5 5 5 6 7 7 8 9 9 9 9 9 8 8 8 8 7 6 7 8 8 6 6 6 8 9 11 10 8 7 7 7 6 7
3 3 3 3 3 3 3 4 4 5 6 6 4 4 5 4 6 7 8 9 8 9 8 8 8 9 9 6 6 6 5 6 6 6 7 7 7 8 8 9 9 8 7 6 7 6 5
3 3 3 3 3 3 3 4 4 5 6 6 5 4 4 4 6 7 7 7 6 6 7 8 8 8 5 6 7 8 8 10 10 9 8 6 7 8 8 9 9 9 6 5 6 6 5
2 3 3 3 3 3 3 3 4 5 6 7 5 5 4 5 5 7 5 6 5 5 6 7 7 6 5 5 4 7 7 8 9 8 8 6 6 7 7 9 7 6 5 5 5 6 4
2 2 3 3 3 3 3 3 4 5 6 6 4 5 4 3 4 5 5 6 4 4 4 4 5 5 5 2 5 5 7 8 8 7 7 7 7 7 6 8 7 4 4 5 7 4 3
2 3 3 3 3 3 3 3 4 4 5 6 3 5 5 1 3 4 6 5 4 4 4 4 3 3 3 3 5 4 5 6 7 7 7 7 7 7 7 6 5 3 5 5 4 3 3
3 3 3 3 3 3 3 3 3 4 5 6 4 5 5 2 3 3 5 6 6 6 3 2 4 4 3 2 1 3 4 3 6 5 6 4 7 7 6 5 4 3 3 2 2 2 2

GFSGBSN_925_temp_129.txt.gz
Temp
13 13 12 12 11 11 11 11 10 9 9 9 9 8 8 8 7 7 8 9 9 9 10 10 11 12 12 14 14 14 15 15 15 15 14 14 14 14 14 14 14 14 14 14 15 15 15
12 12 13 12 12 11 11 11 10 10 9 9 9 8 8 8 8 7 8 8 9 10 10 10 10 11 12 15 14 14 15 15 15 15 14 15 14 14 13 13 13 13 14 14 15 15 16
10 11 12 13 13 12 11 11 11 9 9 8 8 8 8 8 8 7 8 8 10 10 10 10 11 10 11 13 14 15 15 15 15 14 14 14 14 14 14 13 13 13 13 14 15 15 15
9 9 10 12 12 13 11 10 10 9 9 8 8 8 7 8 8 7 8 9 10 10 10 10 10 9 13 14 14 15 15 15 15 14 14 14 14 14 13 13 13 13 13 14 16 16 16
9 8 10 11 12 12 12 10 10 9 9 8 7 7 8 7 8 7 8 8 10 11 10 9 9 9 13 14 14 14 14 14 14 14 13 13 13 13 13 12 12 12 14 13 14 15 15
8 9 9 9 11 11 11 11 10 9 8 8 7 7 7 7 7 7 9 8 8 9 8 8 8 11 14 13 13 14 14 13 13 13 13 13 11 12 11 12 14 13 13 13 13 14 14
7 8 9 9 9 11 11 11 10 9 8 7 7 7 7 7 7 8 8 8 9 9 7 10 10 11 11 12 13 13 13 13 13 13 12 11 12 13 13 12 13 12 12 12 13 14 13
7 8 9 9 9 10 11 11 9 8 7 7 6 6 7 7 7 8 8 8 9 10 10 8 8 9 10 11 13 13 13 14 12 12 11 11 11 12 11 11 10 11 11 12 13 14 14
6 9 10 10 9 10 10 10 9 8 7 7 6 6 6 7 7 8 8 9 9 9 10 10 10 11 12 11 13 13 13 12 12 11 10 11 13 12 11 12 11 12 11 12 12 13 13
6 10 10 10 10 9 10 10 8 7 7 6 6 6 6 8 8 8 8 9 9 9 10 12 11 13 12 12 13 13 13 13 12 11 10 10 10 11 11 11 11 11 12 12 12 11 11
9 12 12 10 11 9 11 9 7 6 6 5 5 6 7 9 8 8 9 9 9 9 14 12 12 13 12 13 14 13 13 12 12 12 10 12 11 10 9 11 11 11 12 12 12 11 10
10 12 11 11 11 10 10 8 6 6 5 5 5 5 6 7 8 8 9 9 9 10 13 12 12 12 12 12 13 13 13 12 12 11 10 11 11 11 11 12 11 13 12 12 11 9 9
7 11 11 11 10 10 8 6 5 5 4 4 5 5 5 7 7 8 8 8 10 12 12 11 11 11 12 11 12 12 12 11 11 11 11 11 11 11 11 11 13 12 12 12 12 11 14
4 11 11 10 9 7 6 5 4 4 4 3 4 4 5 6 8 8 8 8 11 11 11 11 11 11 11 11 10 10 11 11 10 10 9 9 12 12 12 12 12 12 10 12 11 13 14
6 3 9 8 6 5 5 5 4 4 4 3 4 4 5 6 7 8 7 9 12 11 11 11 11 10 10 10 9 9 8 10 10 10 10 9 10 12 12 13 12 10 10 12 10 12 11
6 6 1 5 5 5 4 4 3 3 3 3 4 5 6 6 7 8 7 10 10 11 11 11 10 10 10 10 10 7 9 10 10 10 10 10 8 11 12 13 13 12 12 11 11 11 12
3 3 4 4 1 3 3 3 3 3 3 4 6 6 5 7 8 6 7 9 11 11 12 11 10 10 10 9 9 7 9 9 10 10 9 9 9 11 12 12 12 12 12 11 11 11 12
2 2 2 2 2 2 1 2 2 3 3 5 4 5 5 6 6 5 7 9 12 11 11 11 11 10 10 9 9 9 10 10 9 9 9 10 9 9 11 12 13 12 11 11 11 12 13
3 3 2 2 2 2 2 3 3 3 4 5 5 4 5 6 6 6 8 10 11 11 11 11 10 10 10 9 9 9 9 9 9 9 9 10 9 8 11 12 12 10 10 9 10 10 11
3 3 2 2 2 3 3 3 3 3 4 6 5 5 5 6 5 7 7 9 9 10 10 9 9 9 9 9 9 9 9 9 9 9 10 10 9 9 9 9 8 9 9 9 9 11 11
3 3 3 2 3 3 3 3 3 4 4 5 3 4 6 5 5 7 9 9 10 9 10 10 9 9 9 8 8 8 8 8 9 10 9 9 9 9 10 10 9 8 9 8 7 9 10
3 3 3 3 3 3 3 4 4 4 5 5 4 5 5 7 7 8 9 9 9 9 10 9 9 8 8 9 9 8 9 8 9 9 9 8 9 9 10 11 9 8 8 9 7 7 8
3 3 4 3 4 3 3 4 4 5 6 4 4 5 7 6 7 8 8 9 9 9 8 9 9 8 8 8 8 9 8 9 9 9 8 8 8 9 10 11 9 8 6 7 7 6 6
3 3 3 3 3 3 3 4 5 5 6 6 4 4 6 6 7 8 9 10 9 9 8 8 8 9 7 7 7 6 6 7 7 7 8 8 8 9 10 10 9 7 7 6 6 6 5
3 3 3 3 3 3 4 4 5 5 6 6 5 5 5 5 7 7 8 7 7 7 7 7 7 7 6 7 8 9 9 9 8 9 7 7 8 9 9 10 8 8 6 5 6 6 5
3 3 3 3 3 3 4 4 5 5 6 7 5 5 5 7 6 7 7 7 7 6 7 6 6 5 6 7 7 9 9 9 9 9 8 7 7 8 9 9 9 6 6 5 5 6 4
3 3 3 3 3 3 3 4 4 5 6 7 5 6 5 4 5 6 7 7 5 6 6 5 6 6 6 6 8 8 8 9 9 8 7 8 8 7 7 8 7 4 5 5 8 5 3
2 2 3 3 3 3 3 4 5 5 6 7 4 6 5 3 4 4 6 5 5 5 6 5 5 5 5 6 7 7 7 7 8 7 8 8 8 7 7 7 7 4 6 6 3 3 3
2 2 2 3 3 3 3 3 4 5 6 7 5 6 6 3 3 3 4 5 5 6 4 3 5 5 5 5 4 5 7 6 7 8 7 7 7 7 7 6 4 3 3 2 2 3 2

GFSGBSN_925_temp_135.txt.gz
Temp
11 11 12 12 13 13 13 13 12 11 11 11 10 9 10 10 10 9 9 9 10 10 12 11 12 13 14 20 22 17 16 16 17 19 21 22 23 23 24 25 25 24 25 25 25 24 24
9 9 10 11 11 12 12 13 13 12 11 11 10 10 9 9 9 10 10 9 10 9 11 11 12 13 16 20 18 17 17 18 19 20 20 21 22 22 22 22 22 24 23 23 24 24 25
9 9 9 9 10 11 11 12 12 12 12 11 10 10 10 9 9 10 10 10 10 11 11 11 11 11 17 20 18 18 17 18 18 19 21 19 20 21 22 23 23 22 21 24 26 25 24
8 9 8 8 9 9 11 11 11 12 12 11 10 10 10 9 9 9 9 10 11 11 11 11 12 12 19 17 18 17 19 19 18 18 19 19 19 20 20 22 21 22 23 24 25 24 25
8 9 8 8 8 8 8 10 11 11 12 12 11 10 10 9 9 9 9 10 11 11 11 11 12 15 20 16 18 18 19 20 19 19 18 18 19 20 21 20 23 24 23 24 25 25 23
7 8 8 8 8 8 8 8 9 10 11 11 11 10 9 8 8 8 8 9 10 11 11 12 14 16 18 19 19 18 18 18 19 20 19 19 20 20 22 23 23 23 23 24 23 25 24
7 7 7 8 8 8 8 8 9 9 9 10 11 10 9 8 8 8 8 8 11 13 14 19 20 19 20 19 17 18 18 19 19 20 20 21 20 23 23 21 20 20 21 21 23 24 21
7 7 7 7 8 7 7 8 9 10 9 9 10 10 9 8 7 7 8 12 14 14 17 17 18 18 18 19 18 19 18 19 19 20 21 20 20 21 19 19 19 20 20 21 23 22 22
7 7 6 7 7 7 7 9 10 10 9 9 9 9 9 7 6 6 8 11 12 12 15 17 17 18 18 18 20 20 19 20 19 20 20 20 22 19 18 19 19 20 20 20 20 21 22
6 6 6 6 7 7 7 7 7 9 10 9 9 8 7 6 5 6 6 10 10 11 12 16 16 18 18 19 18 20 19 20 19 19 19 19 19 18 18 19 19 19 21 19 19 19 19
6 6 6 7 7 7 6 7 7 7 7 9 9 7 5 7 8 8 9 9 9 10 12 18 18 19 19 18 19 18 18 19 19 19 18 19 17 17 16 18 18 18 19 19 19 19 20
6 5 6 6 6 6 7 8 10 8 7 8 8 7 5 6 7 9 9 8 8 9 11 17 17 16 17 18 18 18 18 18 19 18 19 19 19 18 19 18 18 19 18 20 21 19 18
5 5 5 6 6 6 8 11 10 8 7 9 8 5 7 7 8 9 8 8 8 10 19 17 16 17 18 17 18 18 18 18 19 17 18 19 18 18 18 18 19 19 19 20 19 19 20
4 5 5 5 5 7 10 11 11 9 8 8 6 4 6 8 8 8 8 8 8 14 18 18 18 17 17 18 17 17 18 18 17 18 19 19 17 18 18 17 17 17 18 18 16 19 19
4 4 4 5 6 9 11 11 10 9 8 6 4 5 5 6 8 8 7 8 11 15 19 18 17 17 17 17 16 17 17 18 18 17 17 18 17 18 18 18 18 16 16 19 16 18 18
4 4 4 4 6 10 11 10 8 8 6 4 5 5 5 6 6 6 7 9 12 16 18 18 17 18 16 16 15 12 15 18 16 16 16 17 16 18 17 18 18 18 19 17 16 15 16
4 3 4 4 6 9 10 9 7 5 4 6 5 4 4 5 5 6 9 12 15 17 18 18 18 17 17 16 16 13 16 16 16 15 16 16 16 17 17 17 18 19 16 16 17 17 16
3 3 3 5 5 5 6 6 4 5 6 8 5 5 4 4 6 6 11 14 16 17 18 18 18 18 18 17 16 15 15 16 16 16 15 16 16 16 18 18 18 17 16 15 12 16 14
3 3 3 3 4 3 3 4 4 5 6 5 4 5 4 5 8 9 12 14 15 16 16 16 17 17 18 16 15 16 16 16 15 15 15 15 15 15 16 17 17 16 15 15 14 13 14
3 3 2 3 3 4 3 2 2 3 4 5 5 5 5 5 8 10 11 13 14 15 15 16 16 17 17 16 16 15 15 13 14 14 11 12 16 14 15 13 14 14 15 14 13 12 12
3 3 3 2 2 2 3 3 3 3 4 5 7 7 8 6 8 11 11 14 14 13 15 15 15 16 16 14 14 14 14 13 13 12 13 14 15 15 16 16 14 12 13 12 11 10 12
3 3 3 3 2 2 1 2 2 4 4 6 6 8 10 10 11 11 12 13 13 14 14 14 14 15 15 14 15 13 14 14 14 13 14 14 15 15 15 16 12 12 13 13 12 11 9
3 3 3 3 3 2 2 2 3 3 4 7 9 11 11 9 9 9 12 13 13 13 12 15 15 14 14 15 15 16 16 16 15 14 14 14 15 15 15 16 11 10 9 10 10 9 10
3 3 3 3 3 3 2 3 3 4 4 6 10 10 9 8 10 11 13 13 13 14 13 15 15 14 13 14 14 14 14 14 14 14 15 14 14 13 15 13 11 8 10 10 7 7 7
3 3 3 3 3 3 3 4 4 4 5 6 8 9 12 10 13 13 14 15 14 14 14 14 13 14 14 13 13 12 12 12 13 15 14 15 14 13 14 15 10 10 12 10 9 7 8
3 3 3 3 4 4 4 4 4 4 5 6 7 7 13 14 14 15 14 14 13 13 12 10 11 12 13 13 13 14 13 14 13 12 14 14 14 14 14 14 13 10 11 10 10 9 7
3 3 3 3 4 4 4 5 6 5 5 5 8 7 13 11 14 15 14 14 14 13 12 11 10 11 12 13 13 15 14 16 13 11 11 12 12 12 14 14 11 11 11 10 8 7 7
3 3 3 3 4 4 4 5 5 5 6 7 7 7 11 11 11 13 14 13 14 14 12 12 11 11 11 13 14 14 14 14 15 15 12 13 13 12 14 13 12 10 11 9 6 7 7
3 3 3 3 4 4 4 5 5 6 7 7 9 7 11 12 9 8 8 9 11 12 13 11 12 12 14 14 13 15 13 13 15 12 13 12 13 12 12 9 9 9 7 7 7 6 5

GFSGBSN_925_temp_141.txt.gz
Temp
11 12 12 12 12 12 12 13 12 13 13 12 12 12 11 11 11 11 11 11 10 10 13 14 13 13 15 15 18 19 19 19 20 20 20 21 21 21 20 19 20 22 23 23 23 22 23
9 9 10 10 11 11 12 12 12 12 12 13 12 12 12 11 11 10 10 10 10 10 11 13 13 13 13 16 20 19 19 19 20 20 21 22 20 20 20 20 20 21 21 21 21 21 22
8 9 9 9 9 9 10 11 12 11 12 12 12 12 12 12 11 11 9 10 10 10 12 12 12 11 12 15 20 19 19 19 20 20 20 21 21 19 18 19 21 21 19 19 21 21 21
8 8 8 9 9 9 9 9 10 11 11 11 11 12 12 12 11 10 9 9 10 10 11 12 11 10 12 19 19 20 19 20 20 20 20 20 20 19 19 19 19 20 20 19 22 22 22
8 8 8 8 8 9 9 9 9 9 10 10 11 11 11 11 11 10 10 10 10 10 11 12 10 11 14 18 19 19 20 20 20 20 20 20 19 18 19 17 16 18 18 19 22 23 22
8 8 8 8 8 8 8 9 9 9 9 9 10 10 10 11 11 10 9 9 9 11 12 10 11 13 15 17 19 19 20 20 20 19 19 18 17 17 16 16 16 19 19 18 19 20 21
7 7 7 7 7 8 8 8 8 8 9 9 9 9 9 10 10 10 9 9 9 10 10 13 15 16 20 19 20 20 19 19 19 18 17 18 16 15 17 19 20 20 19 19 19 21 22
6 7 7 7 7 7 7 7 8 8 8 9 9 9 9 9 9 9 8 8 10 10 9 15 15 16 18 20 18 19 20 17 17 15 17 17 16 19 20 21 20 19 18 18 19 21 20
7 7 7 7 6 6 6 7 7 8 8 8 8 8 9 8 8 7 8 9 10 11 10 12 16 18 18 20 18 18 18 17 17 16 17 16 18 21 20 19 19 19 18 18 19 19 19
7 7 7 6 6 6 6 6 7 7 7 8 8 8 8 7 7 7 7 9 10 12 9 14 15 18 18 19 17 20 20 18 17 17 18 17 20 20 19 19 19 17 20 19 19 17 15
6 7 6 6 6 6 6 6 7 7 7 7 7 8 7 9 7 6 9 9 11 11 12 18 18 19 19 17 19 18 20 18 17 18 18 16 19 18 17 18 19 18 19 18 18 16 16
6 6 6 6 6 6 5 6 6 6 7 7 7 7 6 7 8 9 10 10 10 9 12 17 18 17 17 17 18 19 18 19 19 17 17 17 20 18 18 20 19 19 18 17 17 15 11
6 6 6 6 6 5 5 5 5 5 6 6 6 6 6 7 8 9 9 9 7 10 17 17 16 17 17 16 16 18 17 16 15 15 15 18 18 18 19 18 18 17 16 12 13 12 14
6 6 5 5 5 4 5 4 5 5 5 6 6 6 6 7 8 9 9 7 9 13 14 19 17 16 15 16 16 17 16 15 16 16 17 15 13 18 18 16 17 17 17 13 15 12 12
6 5 5 5 4 4 4 4 5 5 6 5 5 5 6 6 8 9 8 8 10 13 15 16 17 15 15 16 15 16 15 15 17 17 15 17 17 18 18 19 18 17 15 17 15 15 11
5 5 5 5 4 4 4 5 6 7 7 5 6 6 6 6 7 8 7 9 11 14 16 16 15 16 14 16 15 12 15 17 18 19 16 17 15 18 18 18 17 17 18 14 14 12 13
5 5 5 4 4 4 4 5 8 11 10 6 6 7 8 6 7 6 8 9 12 14 15 15 15 15 16 16 16 13 15 17 18 16 16 17 16 16 17 16 16 16 15 16 14 12 10
5 5 5 4 3 4 4 4 4 8 10 7 7 7 6 5 6 7 8 11 13 14 15 16 13 14 15 15 16 15 15 16 17 15 15 16 15 14 16 18 18 17 15 15 9 13 11
5 5 4 4 3 3 4 3 4 4 5 5 7 6 5 7 8 7 9 10 13 14 14 14 15 15 15 16 14 16 16 17 15 15 14 15 13 11 15 16 17 17 15 15 13 12 11
5 5 4 4 4 4 3 4 4 4 4 4 3 5 4 6 6 9 9 10 11 14 14 15 15 16 15 14 15 14 14 15 15 13 13 14 14 12 9 11 13 14 15 15 13 10 8
5 5 4 4 4 4 3 4 4 5 5 5 4 5 5 6 5 8 10 10 12 12 14 15 14 14 13 13 13 13 14 13 14 12 13 13 12 15 15 15 14 15 15 12 12 12 11
5 4 4 4 4 4 3 3 4 4 5 5 4 5 6 7 6 8 10 10 12 13 13 14 13 14 13 12 13 13 13 12 12 12 12 13 12 14 14 16 12 13 14 13 12 12 10
4 4 4 3 4 4 3 3 4 3 4 4 5 8 8 7 7 8 9 11 12 13 14 15 14 13 14 15 15 15 13 13 13 11 11 11 11 12 12 14 11 9 10 10 9 9 9
4 4 4 4 3 4 3 3 3 3 3 4 5 6 7 7 8 8 10 12 13 13 12 14 14 13 13 14 14 14 14 14 13 13 13 12 12 12 11 12 10 8 9 10 6 6 5
4 4 3 3 3 3 3 3 3 3 3 4 5 6 7 8 9 10 11 11 11 13 12 13 14 12 12 12 11 11 11 12 13 13 13 14 13 10 11 11 10 11 10 8 8 6 7
4 4 4 3 3 3 3 3 3 4 3 4 6 6 6 7 8 10 10 10 8 9 10 10 12 11 12 10 9 10 9 11 11 13 15 14 13 11 11 12 10 10 11 11 10 6 9
4 4 4 4 3 3 3 3 4 4 4 4 4 6 7 6 8 9 8 8 11 8 7 9 10 11 11 8 9 10 11 13 11 11 11 11 10 10 10 10 10 11 11 10 8 6 7
4 4 4 4 4 4 4 4 4 4 4 4 5 6 7 7 8 11 11 10 11 9 8 9 9 9 8 9 10 10 11 11 12 12 10 10 9 8 9 10 8 11 10 8 4 6 5
4 4 4 4 4 4 4 4 4 4 4 4 4 6 7 7 7 9 10 11 11 12 9 9 9 10 9 8 9 10 10 9 10 9 12 9 11 8 7 6 7 7 5 6 5 5 6

GFSGBSN_925_temp_144.txt.gz
Temp
11 12 12 12 13 13 13 13 13 13 13 13 13 13 12 11 11 11 11 12 11 12 13 13 14 14 15 14 16 20 20 20 20 20 20 19 19 19 19 19 19 21 21 20 20 20 21
9 9 10 10 11 11 12 12 12 12 13 13 13 13 12 12 12 12 12 10 11 11 12 12 13 14 13 15 20 20 19 19 20 19 20 20 19 19 19 19 19 19 19 19 19 20 21
9 8 9 9 9 9 10 10 11 11 11 12 12 12 12 12 12 11 11 10 10 11 13 12 12 12 11 14 19 19 20 19 19 20 19 20 20 18 17 18 19 20 19 19 20 20 21
8 8 8 8 9 9 9 9 9 10 11 11 11 11 11 12 12 11 11 10 11 11 13 13 12 11 12 18 18 18 19 19 20 20 20 20 20 18 18 18 18 19 19 18 20 19 21
8 8 8 8 8 8 8 8 9 9 9 10 10 11 11 11 11 11 11 10 10 11 12 12 11 11 12 17 18 19 19 19 19 20 20 20 19 17 18 16 16 17 17 18 20 21 21
8 7 7 7 8 8 8 8 8 8 8 9 10 10 11 11 10 10 10 10 10 11 11 11 11 11 13 16 18 19 19 19 19 19 18 18 16 15 14 15 17 18 18 18 19 20 21
7 7 7 7 7 7 7 8 8 8 8 8 9 10 10 9 10 10 10 9 10 10 10 13 14 14 18 18 19 19 19 19 18 18 15 17 14 14 15 16 18 19 19 18 18 20 19
7 6 6 7 7 7 7 7 7 7 8 8 8 9 9 8 9 9 9 9 10 10 10 12 12 12 14 16 16 18 19 16 16 14 15 15 14 16 17 18 19 19 18 17 18 20 19
7 7 7 7 6 6 6 6 6 7 8 8 8 8 8 8 8 8 8 10 11 10 10 12 13 15 16 17 16 16 17 16 16 15 15 14 16 19 18 18 18 18 17 18 18 18 18
7 7 7 7 6 6 6 6 6 7 8 8 8 8 7 8 7 7 8 10 11 11 8 13 12 15 17 17 16 19 18 17 16 16 16 15 17 18 18 18 18 17 19 19 18 16 15
7 7 7 6 6 6 6 6 6 6 7 7 7 7 7 8 8 7 9 10 10 11 9 16 15 18 17 17 17 17 19 17 16 16 16 15 18 17 17 17 19 17 18 18 17 16 15
7 6 6 6 6 6 6 5 5 5 6 7 7 7 6 7 7 10 10 10 10 9 10 15 17 16 15 16 17 17 17 17 17 17 16 15 17 17 17 18 18 19 18 16 16 14 11
6 6 6 6 6 5 5 5 5 5 5 6 7 7 6 6 7 9 9 10 8 9 15 15 15 16 15 15 16 17 16 16 14 14 14 16 16 18 18 17 18 17 14 11 12 11 13
6 6 6 6 5 5 4 4 4 4 5 5 6 7 6 7 7 9 9 7 7 11 12 16 15 15 14 14 14 16 15 14 14 15 14 14 13 16 17 16 16 15 14 12 14 12 12
6 6 6 5 5 5 4 4 4 4 5 5 6 6 6 6 7 8 7 8 8 10 13 14 15 14 14 15 13 14 13 15 16 15 13 15 15 17 18 18 17 16 14 15 14 13 10
6 6 5 5 5 4 4 4 4 4 5 5 5 5 6 5 6 7 7 9 9 12 14 14 13 14 12 13 14 11 13 15 16 16 16 16 15 17 17 17 17 17 16 14 12 12 12
6 6 5 5 5 4 4 4 4 4 6 6 5 5 7 6 6 6 7 8 10 13 13 12 13 13 14 13 14 11 14 16 16 16 16 16 15 15 16 15 15 15 14 14 13 10 11
6 5 5 5 5 4 4 4 4 5 8 5 6 6 6 6 6 6 7 9 11 11 13 13 13 13 14 13 14 14 13 15 16 15 15 16 14 13 15 17 16 16 15 13 10 12 9
6 5 5 5 5 4 4 4 4 5 6 6 7 6 6 6 7 7 8 9 10 11 12 12 13 13 12 13 12 14 14 15 14 15 14 14 12 12 14 15 16 15 15 13 12 10 10
6 5 5 5 4 4 4 4 4 5 5 6 5 6 5 6 8 8 8 8 8 11 12 12 13 13 12 11 13 12 13 14 13 13 13 14 13 12 13 13 13 13 14 13 12 9 7
5 5 5 5 4 4 3 4 4 4 5 5 3 5 5 6 7 9 9 9 9 9 11 12 13 12 12 11 13 12 13 12 12 13 13 12 11 13 14 14 14 14 13 12 12 11 10
5 5 5 5 4 3 4 4 4 4 5 5 3 4 4 5 6 7 8 9 9 10 11 11 12 12 12 11 13 11 11 11 11 12 11 12 11 13 14 14 13 13 12 12 11 11 8
5 5 5 4 4 3 3 3 4 4 4 4 5 5 6 6 5 6 7 9 10 11 11 13 12 12 11 12 13 14 13 12 12 11 10 11 10 11 12 13 11 9 9 11 10 9 9
5 5 4 4 4 3 3 3 3 4 4 4 5 5 5 6 6 7 8 10 11 11 11 13 13 13 13 14 13 12 13 13 12 12 12 11 11 11 10 11 10 9 9 9 7 6 6
5 5 4 4 4 3 3 3 3 4 3 4 5 5 6 6 7 8 9 10 11 11 11 12 13 12 12 12 11 10 10 11 11 12 12 12 10 9 10 10 9 10 9 8 9 6 6
5 4 4 4 3 3 3 3 3 3 3 4 5 6 6 7 7 10 10 11 8 8 9 11 11 11 11 9 9 8 9 10 11 11 12 12 11 10 9 11 10 10 10 10 9 5 6
5 4 4 4 3 3 3 3 3 3 3 4 4 5 6 6 7 9 9 10 9 8 7 9 10 10 11 8 9 10 10 12 10 10 10 10 9 10 9 10 9 10 10 10 8 6 5
4 4 4 4 4 3 3 4 4 4 4 4 4 5 6 6 7 9 10 9 9 9 8 8 8 8 7 9 9 9 9 10 11 11 10 10 9 8 9 9 9 10 10 9 4 4 4
3 4 4 4 4 4 4 4 4 4 3 4 3 6 6 6 6 9 9 10 10 10 9 8 8 9 9 8 8 9 9 8 9 9 12 9 10 7 8 6 6 6 6 4 4 4 3